Weather in Kuybyshevskiy Zaton

Russia / Republic of Tatarstan     55°09′23″N   49°10′32″E
temp.,
°C
wind,
m/s
gust,
m/s
humid.,
%
clouds,
%
prec.,
mm/h
press.,
hPa
HPBL,
m
29 june, wed
wed2900:00+9n47745 0.0 1019398
03:00+8nnw5107833 0.0 1019367
06:00+9n687795 0.0 1020412
09:00+13n68615 0.0 10191142
12:00+17n68538 0.0 10181816
15:00+18n57525 0.0 10171153
18:00+17n466346 0.0 1016212
21:00+13nw45715 0.0 101687
30 june, thu
thu3000:00+12nw34675 0.0 101572
03:00+11wnw4773100 0.0 1014131
06:00+13nw5107093 0.0 1014273
09:00+17nw5762100 0.0 1012587
12:00+18nw675486 0.0 10121084
15:00+18nw5858100 0.0 1010266
18:00+15n91170100 0.1 1010652
21:00+12n5984100 0.3 1012481
1 july, fri
fri100:00+9n610845 0.0 1012425
03:00+7n7119216 0.0 1013369
06:00+8n7108749 0.0 1013518
09:00+11nne897790 0.1 1013955
12:00+10n81092100 1.9 1013613
15:00+14nne8128495 3.9 1012880
18:00+16nne9138084 1.6 10121057
21:00+14nne915845 2.5 1013637
2 july, sat
sat200:00+12nne713873 0.1 1013382
03:00+11nne6108820 0.1 1013283
06:00+13nne698171 0.0 1013314
09:00+17nne686593 0.0 1013639
12:00+19ne465934 0.0 1012933
15:00+20nne565528 0.0 10111011
18:00+19nne466665 0.0 1011175
21:00+15n588214 0.0 1011137
3 july, sun
sun300:00+13n58855 0.0 1011160
03:00+12n58893 0.0 1011158
06:00+14n58835 0.0 1011251
09:00+18nnw56685 0.0 1010524
12:00+20nnw456189 0.1 1009934
15:00+18nnw6975100 0.3 1009581
18:00+18n610680 0.1 1009595
21:00+15nw4677100 0.1 1009104